Location: *
(18.5200°S, 46.4500°E)
Time: 18:10:12
(UTC+00:00)

Aureole 1 Rocket - Pass Details

Date: 19 July 2019
Orbit: 378 x 1385 km, 73.9° (Epoch: 23 August)

Event Time Altitude Azimuth Distance (km) Brightness Sun altitude
Rises 15:45:55 0° 192° (SSW) 2,266 5.9 -16.7°
Reaches altitude 10° 15:47:51 10° 189° (S) 1,422 4.9 -17.1°
Maximum altitude 15:50:51 73° 104° (ESE) 433 2.0 -17.8°
Drops below altitude 10° 15:54:14 10° 18° (NNE) 1,594 5.2 -18.6°
Sets 15:56:31 0° 16° (NNE) 2,581 6.3 -19.1°
